TimeEST,TemperatureF,Dew PointF,Humidity,Sea Level PressureIn,VisibilityMPH,Wind Direction,Wind SpeedMPH,Gust SpeedMPH,PrecipitationIn,Events,Conditions,WindDirDegrees,DateUTC
12:15 AM,12.2,8.6,85,29.47,4.0,Calm,Calm,-,N/A,,Overcast,0,2013-01-01 05:15:00
12:35 AM,14.0,12.2,93,29.46,3.0,Calm,Calm,-,N/A,,Overcast,0,2013-01-01 05:35:00
12:55 AM,15.8,10.4,79,29.44,1.8,Calm,Calm,-,N/A,,Overcast,0,2013-01-01 05:55:00
1:15 AM,15.8,12.2,86,29.44,2.0,Calm,Calm,-,N/A,,Overcast,0,2013-01-01 06:15:00
1:35 AM,15.8,10.4,79,29.43,3.0,Calm,Calm,-,N/A,,Overcast,0,2013-01-01 06:35:00
1:55 AM,15.8,14.0,93,29.43,8.0,Calm,Calm,-,N/A,,Overcast,0,2013-01-01 06:55:00
2:15 AM,15.8,10.4,79,29.42,8.0,SE,3.5,-,N/A,,Overcast,140,2013-01-01 07:15:00
2:35 AM,15.8,12.2,86,29.41,10.0,Calm,Calm,-,N/A,,Overcast,0,2013-01-01 07:35:00
2:55 AM,15.8,10.4,79,29.40,10.0,South,3.5,-,N/A,,Overcast,170,2013-01-01 07:55:00
3:15 AM,15.8,12.2,86,29.40,2.0,Calm,Calm,-,N/A,,Overcast,0,2013-01-01 08:15:00
3:35 AM,15.8,12.2,86,29.39,10.0,South,3.5,-,N/A,,Overcast,180,2013-01-01 08:35:00
3:55 AM,15.8,10.4,79,29.38,10.0,Calm,Calm,-,N/A,,Overcast,0,2013-01-01 08:55:00
4:15 AM,15.8,12.2,86,29.38,10.0,Calm,Calm,-,N/A,,Overcast,0,2013-01-01 09:15:00
4:35 AM,15.8,10.4,79,29.37,10.0,Calm,Calm,-,N/A,,Overcast,0,2013-01-01 09:35:00
4:55 AM,15.8,12.2,86,29.36,10.0,Calm,Calm,-,N/A,,Overcast,0,2013-01-01 09:55:00
5:15 AM,15.8,12.2,86,29.37,10.0,Calm,Calm,-,N/A,,Overcast,0,2013-01-01 10:15:00
5:35 AM,15.8,10.4,79,29.37,-9999.0,SW,3.5,-,N/A,,Overcast,220,2013-01-01 10:35:00
5:55 AM,15.8,10.4,79,29.38,10.0,WSW,3.5,-,N/A,,Scattered Clouds,250,2013-01-01 10:55:00
6:15 AM,14.0,14.0,100,29.38,10.0,WSW,4.6,-,N/A,,Clear,250,2013-01-01 11:15:00
6:35 AM,17.6,15.8,93,29.38,10.0,West,5.8,-,N/A,,Clear,270,2013-01-01 11:35:00
6:55 AM,17.6,14.0,86,29.39,10.0,West,10.4,-,N/A,,Scattered Clouds,270,2013-01-01 11:55:00
7:15 AM,19.4,15.8,86,29.39,10.0,West,8.1,-,N/A,,Scattered Clouds,270,2013-01-01 12:15:00
7:35 AM,19.4,15.8,86,29.40,10.0,West,10.4,-,N/A,,Mostly Cloudy,270,2013-01-01 12:35:00
7:55 AM,21.2,15.8,80,29.41,9.0,West,10.4,-,N/A,,Overcast,270,2013-01-01 12:55:00
8:15 AM,21.2,17.6,86,29.42,5.0,West,10.4,-,N/A,,Overcast,280,2013-01-01 13:15:00
8:35 AM,21.2,15.8,80,29.43,4.0,West,13.8,19.6,N/A,,Overcast,270,2013-01-01 13:35:00
8:55 AM,19.4,12.2,74,29.44,2.5,WNW,18.4,24.2,N/A,,Overcast,290,2013-01-01 13:55:00
9:15 AM,19.4,12.2,74,29.46,8.0,WNW,17.3,-,N/A,,Overcast,290,2013-01-01 14:15:00
9:35 AM,19.4,10.4,68,29.47,3.0,WNW,10.4,-,N/A,,Overcast,290,2013-01-01 14:35:00
9:55 AM,17.6,10.4,73,29.48,8.0,NW,11.5,19.6,N/A,,Overcast,310,2013-01-01 14:55:00
10:15 AM,17.6,6.8,63,29.48,9.0,WNW,15.0,27.6,N/A,,Mostly Cloudy,290,2013-01-01 15:15:00
10:35 AM,17.6,3.2,53,29.48,10.0,WNW,15.0,23.0,N/A,,Clear,290,2013-01-01 15:35:00
10:55 AM,17.6,3.2,53,29.48,6.0,WNW,18.4,25.3,N/A,,Clear,290,2013-01-01 15:55:00
11:15 AM,17.6,3.2,53,29.48,10.0,NW,13.8,23.0,N/A,,Clear,320,2013-01-01 16:15:00
11:35 AM,17.6,1.4,49,29.47,10.0,NW,17.3,26.5,N/A,,Clear,310,2013-01-01 16:35:00
11:55 AM,17.6,3.2,53,29.47,10.0,WNW,16.1,24.2,N/A,,Clear,290,2013-01-01 16:55:00
12:15 PM,17.6,1.4,49,29.47,10.0,WNW,18.4,23.0,N/A,,Clear,290,2013-01-01 17:15:00
12:35 PM,17.6,3.2,53,29.47,8.0,WNW,17.3,24.2,N/A,,Clear,290,2013-01-01 17:35:00
12:55 PM,17.6,3.2,53,29.47,10.0,West,17.3,23.0,N/A,,Clear,280,2013-01-01 17:55:00
1:15 PM,15.8,3.2,58,29.47,10.0,West,15.0,25.3,N/A,,Partly Cloudy,280,2013-01-01 18:15:00
1:35 PM,15.8,3.2,58,29.48,9.0,WNW,13.8,21.9,N/A,,Scattered Clouds,290,2013-01-01 18:35:00
1:55 PM,15.8,3.2,58,29.48,3.0,West,13.8,21.9,N/A,,Overcast,280,2013-01-01 18:55:00
2:15 PM,14.0,3.2,62,29.49,1.8,West,16.1,25.3,N/A,,Overcast,270,2013-01-01 19:15:00
2:35 PM,12.2,1.4,62,29.49,7.0,West,15.0,21.9,N/A,,Overcast,260,2013-01-01 19:35:00
2:55 PM,12.2,1.4,62,29.50,10.0,West,13.8,20.7,N/A,,Overcast,270,2013-01-01 19:55:00
3:15 PM,10.4,-0.4,62,29.50,10.0,West,16.1,24.2,N/A,,Mostly Cloudy,260,2013-01-01 20:15:00
3:35 PM,10.4,-0.4,62,29.50,10.0,West,11.5,20.7,N/A,,Partly Cloudy,260,2013-01-01 20:35:00
4:15 PM,8.6,-2.2,62,29.52,10.0,West,15.0,-,N/A,,Mostly Cloudy,280,2013-01-01 21:15:00
4:35 PM,8.6,-2.2,62,29.52,10.0,West,13.8,18.4,N/A,,Clear,260,2013-01-01 21:35:00
4:55 PM,8.6,-2.2,62,29.53,10.0,West,13.8,21.9,N/A,,Clear,280,2013-01-01 21:55:00
5:15 PM,6.8,-2.2,67,29.53,10.0,West,12.7,18.4,N/A,,Clear,260,2013-01-01 22:15:00
5:35 PM,6.8,-2.2,67,29.54,10.0,West,15.0,25.3,N/A,,Partly Cloudy,260,2013-01-01 22:35:00
5:55 PM,6.8,-2.2,67,29.54,10.0,West,12.7,25.3,N/A,,Partly Cloudy,260,2013-01-01 22:55:00
6:15 PM,5.0,-4.0,66,29.54,10.0,WSW,8.1,16.1,N/A,,Clear,250,2013-01-01 23:15:00
6:35 PM,5.0,-5.8,61,29.55,10.0,WSW,9.2,-,N/A,,Clear,250,2013-01-01 23:35:00
6:55 PM,3.2,-5.8,66,29.55,10.0,West,9.2,-,N/A,,Scattered Clouds,260,2013-01-01 23:55:00
7:15 PM,3.2,-4.0,72,29.56,10.0,West,10.4,-,N/A,,Overcast,260,2013-01-02 00:15:00
7:35 PM,3.2,-5.8,66,29.56,10.0,West,6.9,-,N/A,,Overcast,270,2013-01-02 00:35:00
7:55 PM,3.2,-4.0,72,29.57,10.0,West,5.8,-,N/A,,Scattered Clouds,260,2013-01-02 00:55:00
8:15 PM,3.2,-5.8,66,29.56,10.0,Calm,Calm,-,N/A,,Clear,0,2013-01-02 01:15:00
8:35 PM,1.4,-5.8,72,29.56,10.0,SW,3.5,-,N/A,,Clear,220,2013-01-02 01:35:00
8:55 PM,1.4,-4.0,78,29.56,10.0,West,4.6,-,N/A,,Clear,270,2013-01-02 01:55:00
9:15 PM,1.4,-5.8,72,29.56,10.0,West,3.5,-,N/A,,Clear,260,2013-01-02 02:15:00
9:35 PM,1.4,-5.8,72,29.57,10.0,West,4.6,-,N/A,,Clear,260,2013-01-02 02:35:00
10:15 PM,1.4,-5.8,72,29.57,10.0,West,4.6,-,N/A,,Clear,260,2013-01-02 03:15:00
10:35 PM,1.4,-7.6,66,29.58,10.0,West,10.4,-,N/A,,Mostly Cloudy,270,2013-01-02 03:35:00
10:55 PM,1.4,-5.8,72,29.58,10.0,West,10.4,-,N/A,,Overcast,270,2013-01-02 03:55:00
11:15 PM,1.4,-5.8,72,29.58,10.0,West,11.5,17.3,N/A,,Scattered Clouds,260,2013-01-02 04:15:00
11:35 PM,1.4,-5.8,72,29.58,10.0,West,9.2,-,N/A,,Clear,270,2013-01-02 04:35:00
11:55 PM,1.4,-7.6,66,29.57,10.0,West,8.1,-,N/A,,Clear,270,2013-01-02 04:55:00